Regional Weather Roundup
Issued by NWS

Home | Current Version | Previous Version | Text Only | Print | Product List | Glossary On
Versions: 1 2 3 4 5 6 7 8 9 10 11 12 13 14 15 16 17 18 19 20 21 22 23 24 25 26 27 28
000
ASUS46 KSEW 231710
RWRWA

WASHINGTON REGIONAL WEATHER ROUNDUP
NATIONAL WEATHER SERVICE SEATTLE WA
1000 AM PDT THU MAR 23 2017

NOTE:"FAIR" INDICATES FEW OR NO CLOUDS BELOW 12,000 FEET WITH NO
SIGNIFICANT WEATHER AND/OR OBSTRUCTIONS TO VISIBILITY.

WAZ507-509-555>559-231800-
SEATTLE, TACOMA, EVERETT, AND VICINITY

CITY           SKY/WX    TMP DP  RH WIND       PRES   REMARKS
EVERETT        CLOUDY    46  37  71 SE12      30.07S
BOEING FIELD   PTSUNNY   49  41  74 S8        30.09S
RENTON         MOSUNNY   50  37  61 S7        30.08F
SEATAC AIRPORT PTSUNNY   47  38  71 SE9       30.08S
JBLM-MCCHORD   PTSUNNY   48  40  73 S9        30.08S
PUYALLUP         N/A     48  36  61 VRB5      30.08S
BREMERTON      CLOUDY    45  39  81 S7        30.10F
JBLM-FT LEWIS  MOSUNNY   48  41  77 SE10      30.07S
TACOMA NARROWS CLOUDY    46  37  71 S6        30.08S
$$

WAZ001-503-506-510-514-515-231800-
NORTH INTERIOR

CITY           SKY/WX    TMP DP  RH WIND       PRES   REMARKS
BELLINGHAM     MOSUNNY   48  37  65 SE16G24   30.04S
FRIDAY HARBOR  CLOUDY    46  39  76 SE13G20   30.05S
EASTSOUND      PTSUNNY   46  39  76 S7G18     30.02S
PORT ANGELES   PTSUNNY   45  40  82 CALM      30.00F
EDIZ HOOK      FAIR      45  39  77 CALM      30.02S
PORT TOWNSEND  FAIR      46  41  81 VRB6G13   30.04S
NAS WHIDBEY    CLOUDY    48  37  65 SE14      30.08F
ARLINGTON      PTSUNNY   48  34  57 SE14      30.10F
BURLINGTON     PTSUNNY   48  37  66 SE13G25   30.07S
$$

WAZ020-022-039-040-504-511-512-231800-
SOUTHWEST INTERIOR

CITY           SKY/WX    TMP DP  RH WIND       PRES   REMARKS
SHELTON        PTSUNNY   46  40  79 CALM      30.05S
OLYMPIA        PTSUNNY   46  39  76 S14       30.07F
CHEHALIS       PTSUNNY   48  41  76 S15       30.07F
KELSO          CLOUDY    47  39  74 S9        30.10F
VANCOUVER      PTSUNNY   46  41  82 E9        30.11S
SCAPPOOSE, OR  CLOUDY    45  40  82 CALM      30.10S
PORTLAND, OR   PTSUNNY   46  39  76 E12       30.11F
$$

WAZ021-516-517-231800-
WASHINGTON COAST

CITY           SKY/WX    TMP DP  RH WIND       PRES   REMARKS
FORKS          LGT RAIN  44  43  96 SE9G22    29.98S
HOQUIAM        CLOUDY    45  43  93 E10       30.04S
ASTORIA, OR    CLOUDY    47  39  74 E8        30.04F
$$

WAZ019-023-024-040-567>569-231800-
CASCADE MOUNTAINS AND COLUMBIA GORGE

CITY           SKY/WX    TMP DP  RH WIND       PRES   REMARKS
STAMPEDE PASS  NOT AVBL
TROUTDALE, OR  CLOUDY    47  40  76 E7        30.12S
THE DALLES, OR MOSUNNY   45  35  68 CALM      30.14F
$$

WAZ026-027-041>044-520-521-231800-
EAST SLOPES

CITY           SKY/WX    TMP DP  RH WIND       PRES   REMARKS
OMAK           PTSUNNY   42  33  70 E5        30.05R
WENATCHEE      MOSUNNY   43  32  65 SE7       30.05S
ELLENSBURG     MOSUNNY   44  31  60 S3        30.06S
YAKIMA         SUNNY     45  31  58 VRB3      30.10R
SUNNYSIDE ARPT SUNNY     43  31  63 CALM      30.11R
$$

WAZ028-034-035-231800-
COLUMBIA BASIN

CITY           SKY/WX    TMP DP  RH WIND       PRES   REMARKS
EPHRATA        MOSUNNY   44  30  57 S10       30.05R
MOSES LAKE     SUNNY     45  32  60 S7        30.07R
PASCO          MOSUNNY   48  33  56 S7        30.13S
HERMISTON, OR  MOSUNNY   48  35  60 W7        30.12S
$$

WAZ036>038-231800-
NORTHEAST WASHINGTON

CITY           SKY/WX    TMP DP  RH WIND       PRES   REMARKS
SPOKANE GEIGER PTSUNNY   38  31  76 SW14      30.05R
SPOKANE FELTS  MOSUNNY   41  33  73 S10       30.08R
FAIRCHILD AFB  MOSUNNY   39  35  86 S9        30.04R
COEURDALENE,ID MOSUNNY   42  33  70 S16       30.06R
DEER PARK      MOSUNNY   39  32  76 S8        30.07R
$$

WAZ029>033-231800-
SOUTHEAST WASHINGTON

CITY           SKY/WX    TMP DP  RH WIND       PRES   REMARKS
PULLMAN        SUNNY     42  32  67 W10       30.09S
LEWISTON, ID   MOSUNNY   41  39  93 N3        30.10S FOG
WALLA WALLA      N/A    N/A N/A N/A MISG      30.11F
PENDLETON, OR  MOSUNNY   44  35  70 S6        30.11S
$$




USA.gov is the U.S. government's official web portal to all federal, state and local government web resources and services.